TimeEST,TemperatureF,Dew PointF,Humidity,Sea Level PressureIn,VisibilityMPH,Wind Direction,Wind SpeedMPH,Gust SpeedMPH,PrecipitationIn,Events,Conditions,WindDirDegrees,DateUTC
12:05 AM,47.1,30.2,52,30.15,10.0,West,6.9,-,N/A,,Overcast,280,2013-01-07 05:05:00
12:30 AM,46.8,30.7,54,30.16,10.0,WNW,3.5,-,N/A,,Overcast,300,2013-01-07 05:30:00
12:50 AM,46.8,31.1,55,30.17,10.0,Calm,Calm,-,N/A,,Overcast,0,2013-01-07 05:50:00
1:30 AM,46.2,31.3,56,30.17,10.0,West,4.6,-,N/A,,Overcast,270,2013-01-07 06:30:00
1:55 AM,46.4,31.8,57,30.18,10.0,WNW,5.8,-,N/A,,Overcast,300,2013-01-07 06:55:00
2:15 AM,46.4,32.0,57,30.19,10.0,WNW,3.5,-,N/A,,Overcast,290,2013-01-07 07:15:00
2:35 AM,46.4,32.0,57,30.20,10.0,NNW,4.6,-,N/A,,Overcast,340,2013-01-07 07:35:00
2:55 AM,46.2,32.0,58,30.20,10.0,NW,5.8,-,N/A,,Overcast,310,2013-01-07 07:55:00
3:20 AM,45.9,31.6,58,30.21,10.0,NW,9.2,-,N/A,,Overcast,310,2013-01-07 08:20:00
3:40 AM,45.9,30.9,56,30.21,10.0,NW,10.4,23.0,N/A,,Overcast,310,2013-01-07 08:40:00
4:00 AM,45.9,30.6,55,30.22,10.0,NW,6.9,16.1,N/A,,Overcast,310,2013-01-07 09:00:00
4:20 AM,45.7,30.7,56,30.23,10.0,NW,6.9,16.1,N/A,,Overcast,310,2013-01-07 09:20:00
4:45 AM,45.5,31.1,57,30.24,10.0,NW,4.6,-,N/A,,Overcast,310,2013-01-07 09:45:00
5:05 AM,45.5,31.3,58,30.25,10.0,NW,10.4,-,N/A,,Overcast,320,2013-01-07 10:05:00
5:25 AM,45.1,31.1,58,30.26,10.0,WNW,5.8,-,N/A,,Overcast,290,2013-01-07 10:25:00
5:50 AM,44.6,30.7,58,30.28,10.0,NW,9.2,-,N/A,,Overcast,320,2013-01-07 10:50:00
6:10 AM,44.6,30.2,57,30.29,10.0,WNW,6.9,-,N/A,,Overcast,300,2013-01-07 11:10:00
6:50 AM,44.6,29.1,55,30.30,10.0,NW,9.2,-,N/A,,Overcast,310,2013-01-07 11:50:00
7:15 AM,43.3,28.9,57,30.32,10.0,NW,6.9,-,N/A,,Mostly Cloudy,320,2013-01-07 12:15:00
7:35 AM,43.7,28.8,56,30.33,10.0,NW,8.1,-,N/A,,Scattered Clouds,320,2013-01-07 12:35:00
7:55 AM,43.7,28.6,55,30.34,10.0,NW,5.8,-,N/A,,Mostly Cloudy,310,2013-01-07 12:55:00
8:15 AM,44.1,28.8,55,30.35,10.0,NW,8.1,-,N/A,,Overcast,310,2013-01-07 13:15:00
8:40 AM,44.1,29.1,56,30.38,10.0,West,8.1,-,N/A,,Overcast,280,2013-01-07 13:40:00
9:00 AM,44.2,29.1,55,30.39,10.0,NW,9.2,-,N/A,,Overcast,320,2013-01-07 14:00:00
9:20 AM,44.2,29.5,56,30.40,10.0,WNW,9.2,-,N/A,,Overcast,290,2013-01-07 14:20:00
9:40 AM,45.9,29.7,53,30.41,10.0,NW,10.4,-,N/A,,Overcast,310,2013-01-07 14:40:00
10:05 AM,47.1,29.8,51,30.43,10.0,WNW,8.1,-,N/A,,Overcast,300,2013-01-07 15:05:00
10:25 AM,45.7,29.3,53,30.43,10.0,NW,9.2,-,N/A,,Overcast,310,2013-01-07 15:25:00
10:45 AM,45.5,28.4,51,30.43,10.0,NNW,4.6,-,N/A,,Overcast,330,2013-01-07 15:45:00
11:00 AM,45.7,28.6,51,30.43,10.0,NW,4.6,-,N/A,,Overcast,320,2013-01-07 16:00:00
11:30 AM,46.0,27.9,49,30.43,10.0,NW,8.1,-,N/A,,Overcast,310,2013-01-07 16:30:00
11:50 AM,46.2,27.5,48,30.42,10.0,NW,10.4,-,N/A,,Overcast,320,2013-01-07 16:50:00
12:10 PM,46.4,27.1,47,30.42,10.0,WNW,6.9,-,N/A,,Mostly Cloudy,290,2013-01-07 17:10:00
12:55 PM,48.2,27.7,45,30.40,10.0,North,8.1,-,N/A,,Scattered Clouds,360,2013-01-07 17:55:00
1:15 PM,47.5,27.3,46,30.40,10.0,NW,6.9,-,N/A,,Clear,310,2013-01-07 18:15:00
1:55 PM,47.8,27.3,45,30.40,10.0,WNW,4.6,-,N/A,,Clear,290,2013-01-07 18:55:00
2:20 PM,48.4,27.9,45,30.40,10.0,NW,8.1,-,N/A,,Clear,310,2013-01-07 19:20:00
2:40 PM,48.0,27.9,46,30.41,10.0,NNW,8.1,-,N/A,,Clear,340,2013-01-07 19:40:00
3:00 PM,47.5,27.5,46,30.41,10.0,North,5.8,-,N/A,,Clear,350,2013-01-07 20:00:00
3:20 PM,47.3,27.1,46,30.41,10.0,NW,3.5,-,N/A,,Clear,310,2013-01-07 20:20:00
3:45 PM,46.8,27.0,46,30.42,10.0,WNW,3.5,-,N/A,,Clear,290,2013-01-07 20:45:00
4:05 PM,46.4,27.9,48,30.42,10.0,NNW,3.5,-,N/A,,Clear,330,2013-01-07 21:05:00
4:25 PM,45.5,27.3,49,30.42,10.0,Calm,Calm,-,N/A,,Clear,0,2013-01-07 21:25:00
4:45 PM,44.6,27.0,50,30.42,10.0,Calm,Calm,-,N/A,,Clear,0,2013-01-07 21:45:00
5:10 PM,43.2,27.3,54,30.43,10.0,Calm,Calm,-,N/A,,Clear,0,2013-01-07 22:10:00
5:50 PM,38.5,28.4,67,30.44,10.0,Calm,Calm,-,N/A,,Clear,0,2013-01-07 22:50:00
6:10 PM,37.8,28.9,71,30.44,10.0,Calm,Calm,-,N/A,,Clear,0,2013-01-07 23:10:00
6:55 PM,35.6,30.0,80,30.45,10.0,Calm,Calm,-,N/A,,Clear,0,2013-01-07 23:55:00
7:10 PM,34.2,28.6,80,30.45,10.0,Calm,Calm,-,N/A,,Clear,0,2013-01-08 00:10:00
8:00 PM,32.7,27.9,82,30.44,10.0,Calm,Calm,-,N/A,,Clear,0,2013-01-08 01:00:00
8:20 PM,32.0,28.0,85,30.44,10.0,Calm,Calm,-,N/A,,Clear,0,2013-01-08 01:20:00
8:40 PM,31.5,28.0,87,30.44,10.0,Calm,Calm,-,N/A,,Clear,0,2013-01-08 01:40:00
9:00 PM,31.6,27.7,85,30.44,10.0,Calm,Calm,-,N/A,,Clear,0,2013-01-08 02:00:00
9:25 PM,31.5,27.9,87,30.44,10.0,Calm,Calm,-,N/A,,Clear,0,2013-01-08 02:25:00
9:45 PM,30.6,27.5,88,30.44,10.0,Calm,Calm,-,N/A,,Clear,0,2013-01-08 02:45:00
10:05 PM,30.2,27.5,90,30.43,10.0,Calm,Calm,-,N/A,,Clear,0,2013-01-08 03:05:00
10:25 PM,30.0,27.3,90,30.43,10.0,Calm,Calm,-,N/A,,Clear,0,2013-01-08 03:25:00
10:50 PM,30.0,29.3,97,30.43,7.0,Calm,Calm,-,N/A,,Clear,0,2013-01-08 03:50:00
11:10 PM,30.6,28.6,92,30.43,10.0,Calm,Calm,-,N/A,,Clear,0,2013-01-08 04:10:00
11:30 PM,29.8,28.4,94,30.43,10.0,Calm,Calm,-,N/A,,Clear,0,2013-01-08 04:30:00
11:50 PM,29.3,27.5,93,30.43,10.0,Calm,Calm,-,N/A,,Clear,0,2013-01-08 04:50:00